Nagpur Sonegaon, India

4:59 PM IST on May 27, 2018 (GMT +0530)
Nagpur

Weather History for VANP - September, 2013

Change the Weather History Date:

Tuesday, September 10, 2013

  Actual Average Record
Temperature  
Mean Temperature 84 °F -  
Max Temperature 92 °F 90 °F - ()
Min Temperature 75 °F 72 °F - ()
Cooling Degree Days 18    
Growing Degree Days 34 (Base 50)    
Moisture  
Dew Point 75 °F    
Average Humidity 77    
Maximum Humidity 94    
Minimum Humidity 49    
Precipitation  
Precipitation 0.00 in 0.17 in - ()
Sea Level Pressure  
Sea Level Pressure 29.72 in    
Wind  
Wind Speed 3 mph ()    
Max Wind Speed 12 mph    
Max Gust Speed -    
Visibility 2.5 miles    
Events      
T = Trace of Precipitation, MM = Missing Value Source: Averaged Metar Reports

Daily Weather History Graph

Daily Weather History Graph

Search for Another Location

Airport or City:

Astronomy

Sep. 10, 2013 Rise Set
Actual Time 5:59 AM IST 6:21 PM IST
Civil Twilight 5:37 AM IST 6:43 PM IST
Nautical Twilight 5:11 AM IST 7:09 PM IST
Astronomical Twilight 4:45 AM IST 7:36 PM IST
Moon 10:14 AM IST (9/10) 9:45 PM IST (9/10)
Length of Visible Light 13h 06m
Length of Day
12h 22m
Waxing Crescent, 24% of the Moon is Illuminated
Sep 10
Waxing Crescent
Sep 12
First Quarter
Sep 19
Full
Sep 27
Last Quarter
Oct 5
New

Hourly Weather History & Observations

Time (IST) Temp. Heat Index Dew Point Humidity Pressure Visibility Wind Dir Wind Speed Gust Speed Precip Events Conditions
12:10 AM 78.8 °F - 73.4 °F 83% 29.80 in 2.5 mi ENE 3.5 mph - N/A   Haze
2:10 AM 78.8 °F - 73.4 °F 83% 29.77 in 2.5 mi Calm Calm - N/A   Haze
2:30 AM 78 °F - 73 °F 80% 29.72 in 1 mi SW 4.6 mph - -   Haze
3:10 AM 77.0 °F - 73.4 °F 89% 29.74 in 2.5 mi Calm Calm - N/A   Haze
4:10 AM 77.0 °F - 71.6 °F 83% 29.74 in 2.5 mi West 2.3 mph - N/A   Haze
5:10 AM 77.0 °F - 71.6 °F 83% 29.74 in 2.5 mi NNE 2.3 mph - N/A   Haze
5:30 AM 76 °F - 74 °F 90% 29.73 in 1 mi East 2.3 mph - -   Haze
5:40 AM 77.0 °F - 73.4 °F 89% 29.74 in 2.5 mi SE 2.3 mph - N/A   Haze
6:40 AM 75.2 °F - 73.4 °F 94% 29.77 in 1.9 mi NNE 2.3 mph - N/A   Haze
7:10 AM 75.2 °F - 73.4 °F 94% 29.77 in 2.5 mi ENE 2.3 mph - N/A   Haze
7:40 AM 77.0 °F - 73.4 °F 89% 29.77 in 2.5 mi North 3.5 mph - N/A   Haze
8:30 AM 82 °F - 76 °F 78% 29.76 in 2 mi NNE 2.3 mph - -   Haze
8:40 AM 84.2 °F 94.1 °F 77.0 °F 79% 29.80 in 2.5 mi NNE 2.3 mph - N/A   Haze
9:10 AM 82.4 °F 90.9 °F 77.0 °F 84% 29.80 in 2.5 mi ENE 3.5 mph - N/A   Haze
10:10 AM 84.2 °F 94.1 °F 77.0 °F 79% 29.80 in 2.5 mi NE 2.3 mph - N/A   Haze
10:40 AM 86.0 °F 96.9 °F 77.0 °F 74% 29.80 in 2.5 mi ENE 5.8 mph - N/A   Haze
11:10 AM 86.0 °F 96.9 °F 77.0 °F 74% 29.80 in 2.5 mi East 5.8 mph - N/A   Haze
11:40 AM 87.8 °F 102.5 °F 78.8 °F 75% 29.74 in 2.5 mi ENE 2.3 mph - N/A   Haze
12:10 PM 89.6 °F 104.7 °F 78.8 °F 70% 29.77 in 2.5 mi NNE 4.6 mph - N/A   Haze
12:40 PM 89.6 °F 104.7 °F 78.8 °F 70% 29.77 in 2.5 mi ENE 5.8 mph - N/A   Haze
1:10 PM 89.6 °F 104.7 °F 78.8 °F 70% 29.71 in 2.5 mi NNE 6.9 mph - N/A   Haze
1:40 PM 91.4 °F 107.2 °F 78.8 °F 66% 29.68 in 2.5 mi NNE 6.9 mph - N/A   Haze
2:10 PM 91.4 °F 107.2 °F 78.8 °F 66% 29.68 in 3.1 mi NNE 5.8 mph - N/A   Haze
2:30 PM 92 °F - 75 °F 49% 29.57 in 2 mi NNE 4.6 mph - -   Haze
3:10 PM 91.4 °F 102.5 °F 75.2 °F 59% 29.68 in 3.1 mi NNE 6.9 mph - N/A   Haze
3:40 PM 91.4 °F 102.5 °F 75.2 °F 59% 29.65 in 3.1 mi NNW 11.5 mph - N/A   Haze
4:10 PM 91.4 °F 102.5 °F 75.2 °F 59% 29.65 in 3.1 mi NNE 6.9 mph - N/A   Haze
4:40 PM 89.6 °F 99.8 °F 75.2 °F 62% 29.68 in 3.1 mi NNE 5.8 mph - N/A   Haze
5:10 PM 87.8 °F 99.7 °F 77.0 °F 70% 29.68 in 3.1 mi NE 5.8 mph - N/A   Haze
5:30 PM 87 °F - 75 °F 60% 29.62 in 2 mi East 2.3 mph - -   Haze
5:40 PM 86.0 °F 95.1 °F 75.2 °F 70% 29.68 in 3.1 mi ENE 2.3 mph - N/A   Haze
6:10 PM 86.0 °F 95.1 °F 75.2 °F 70% 29.68 in 3.1 mi East 3.5 mph - N/A   Haze
6:40 PM 86.0 °F 93.4 °F 73.4 °F 66% 29.68 in 3.1 mi NE 2.3 mph - N/A   Haze
7:10 PM 86.0 °F 93.4 °F 73.4 °F 66% 29.71 in 3.1 mi Calm Calm - N/A   Haze
7:40 PM 84.2 °F 90.9 °F 73.4 °F 70% 29.71 in 3.1 mi Calm Calm - N/A   Haze
8:10 PM 84.2 °F 90.9 °F 73.4 °F 70% 29.71 in 3.1 mi Calm Calm - N/A   Haze
8:30 PM 79 °F - 75 °F 84% 29.68 in 1 mi Calm Calm - -   Haze
8:40 PM 78.8 °F - 75.2 °F 89% 29.71 in 2.5 mi Calm Calm - N/A   Haze
9:10 PM 78.8 °F - 75.2 °F 89% 29.71 in 2.5 mi Calm Calm - N/A   Haze
10:10 PM 77.0 °F - 73.4 °F 89% 29.74 in 2.5 mi Calm Calm - N/A   Haze
10:40 PM 77.0 °F - 73.4 °F 89% 29.74 in 2.5 mi Calm Calm - N/A   Haze
11:10 PM 77.0 °F - 73.4 °F 89% 29.74 in 2.5 mi Calm Calm - N/A   Haze
11:30 PM 78 °F - 75 °F 89% 29.72 in 1 mi South 2.3 mph - -   Haze